VTD373 UWSK-UWSK

Flight info

Callsign VTD373
Flight time 0h 6m
Altitude 1200
Route RA/12
Aircraft DA40/L-VGD/A

Departure

Time 2026-05-06 20:14
Airport Krasny Kut Airport (UWSK)

Arrival

Time 2026-05-06 20:20
Airport Krasny Kut Airport (UWSK)
Time Latitude Longitude Altitude Speed Heading
2026-05-06 20:01 50.95565 46.94464 162 ft 0 kts 172°
2026-05-06 20:08 50.95564 46.94464 165 ft 1 kts 172°
2026-05-06 20:08 50.95553 46.94447 163 ft 4 kts 278°
2026-05-06 20:09 50.95581 46.94406 161 ft 7 kts 301°
2026-05-06 20:09 50.95610 46.94356 160 ft 6 kts 348°
2026-05-06 20:09 50.95648 46.94367 160 ft 4 kts 308°
2026-05-06 20:09 50.95655 46.94341 160 ft 0 kts 298°
2026-05-06 20:11 50.95661 46.94324 160 ft 5 kts 298°
2026-05-06 20:11 50.95672 46.94305 161 ft 1 kts 352°
2026-05-06 20:11 50.95676 46.94307 161 ft 0 kts 27°
2026-05-06 20:13 50.95730 46.94346 161 ft 30 kts 18°
2026-05-06 20:13 50.96052 46.94595 201 ft 65 kts 21°
2026-05-06 20:13 50.96448 46.94914 415 ft 62 kts 22°
2026-05-06 20:13 50.96841 46.95269 568 ft 70 kts 26°
2026-05-06 20:14 50.97288 46.95621 720 ft 74 kts 10°
2026-05-06 20:14 50.97741 46.95262 821 ft 85 kts 300°
2026-05-06 20:14 50.97996 46.94358 953 ft 95 kts 294°
2026-05-06 20:14 50.98145 46.93744 1065 ft 98 kts 292°
2026-05-06 20:15 50.98389 46.92706 1194 ft 103 kts 293°
2026-05-06 20:15 50.98496 46.91607 1270 ft 104 kts 256°
2026-05-06 20:15 50.97982 46.90762 1189 ft 118 kts 210°
2026-05-06 20:15 50.97236 46.90122 1131 ft 124 kts 210°
2026-05-06 20:16 50.96498 46.89468 1151 ft 116 kts 211°
2026-05-06 20:16 50.95865 46.88880 1218 ft 104 kts 210°
2026-05-06 20:16 50.95232 46.88343 1197 ft 103 kts 207°
2026-05-06 20:16 50.94592 46.87848 1169 ft 101 kts 205°
2026-05-06 20:17 50.93964 46.87381 1157 ft 99 kts 203°
2026-05-06 20:17 50.93318 46.87504 1168 ft 97 kts 140°
2026-05-06 20:17 50.92952 46.88391 1128 ft 99 kts 111°
2026-05-06 20:17 50.92675 46.89367 1079 ft 92 kts 109°
2026-05-06 20:18 50.92450 46.90284 917 ft 87 kts 107°
2026-05-06 20:18 50.92281 46.91130 895 ft 77 kts 101°
2026-05-06 20:18 50.92490 46.91842 819 ft 78 kts 25°
2026-05-06 20:18 50.92984 46.92205 743 ft 78 kts 21°
2026-05-06 20:19 50.93476 46.92569 664 ft 77 kts 24°
2026-05-06 20:19 50.93957 46.92966 527 ft 80 kts 24°
2026-05-06 20:19 50.94458 46.93344 399 ft 79 kts 22°
2026-05-06 20:19 50.94934 46.93717 290 ft 76 kts 24°
2026-05-06 20:20 50.95394 46.94080 196 ft 72 kts 23°
2026-05-06 20:20 50.95820 46.94419 166 ft 62 kts 25°
2026-05-06 20:20 50.95998 46.94567 169 ft 0 kts 26°
2026-05-06 20:21 50.96011 46.94577 170 ft 15 kts 24°
2026-05-06 20:21 50.96170 46.94699 173 ft 52 kts 30°
2026-05-06 20:21 50.96578 46.95015 277 ft 71 kts 24°
2026-05-06 20:22 50.97026 46.95398 462 ft 75 kts 26°
2026-05-06 20:22 50.97482 46.95803 637 ft 78 kts 24°
2026-05-06 20:22 50.97984 46.95918 793 ft 78 kts 330°
2026-05-06 20:22 50.98322 46.95159 869 ft 92 kts 297°
2026-05-06 20:23 50.98584 46.94245 1068 ft 93 kts 296°
2026-05-06 20:23 50.98838 46.93217 1152 ft 104 kts 293°
2026-05-06 20:23 50.99031 46.92082 1217 ft 108 kts 272°
2026-05-06 20:23 50.98671 46.91034 1173 ft 116 kts 218°
2026-05-06 20:24 50.97949 46.90404 1120 ft 117 kts 209°
2026-05-06 20:24 50.97243 46.89810 1167 ft 115 kts 209°
2026-05-06 20:24 50.96559 46.89269 1212 ft 105 kts 206°
2026-05-06 20:24 50.95912 46.88778 1211 ft 102 kts 208°
2026-05-06 20:25 50.95508 46.88430 1211 ft 102 kts 209°
2026-05-06 20:25 50.94869 46.87902 1154 ft 103 kts 207°
2026-05-06 20:25 50.94232 46.87404 1143 ft 100 kts 206°
2026-05-06 20:25 50.93578 46.87312 1142 ft 98 kts 152°
2026-05-06 20:26 50.93150 46.88150 1072 ft 100 kts 115°
2026-05-06 20:26 50.92853 46.89080 965 ft 92 kts 113°
2026-05-06 20:26 50.92597 46.89978 872 ft 86 kts 109°
2026-05-06 20:26 50.92359 46.90821 839 ft 82 kts 109°
2026-05-06 20:27 50.92416 46.91643 788 ft 78 kts 44°
2026-05-06 20:27 50.92890 46.92122 666 ft 83 kts 24°
2026-05-06 20:27 50.93415 46.92516 537 ft 84 kts 24°
2026-05-06 20:27 50.93925 46.92946 447 ft 80 kts 25°
2026-05-06 20:28 50.94415 46.93316 393 ft 77 kts 22°
2026-05-06 20:28 50.94902 46.93686 307 ft 79 kts 24°
2026-05-06 20:28 50.95366 46.94064 217 ft 71 kts 25°
2026-05-06 20:28 50.95782 46.94395 165 ft 62 kts 25°
2026-05-06 20:29 50.95941 46.94521 166 ft 42 kts 26°
2026-05-06 20:29 50.96001 46.94568 170 ft 6 kts 27°
2026-05-06 20:30 50.96002 46.94569 170 ft 0 kts 28°
2026-05-06 20:30 50.96241 46.94738 175 ft 59 kts 26°
2026-05-06 20:30 50.96662 46.95084 320 ft 70 kts 27°
2026-05-06 20:31 50.97084 46.95472 514 ft 71 kts 24°
2026-05-06 20:31 50.97541 46.95828 653 ft 77 kts
2026-05-06 20:31 50.98008 46.95434 736 ft 88 kts 304°
2026-05-06 20:31 50.98306 46.94511 850 ft 95 kts 297°
2026-05-06 20:32 50.98570 46.93534 1039 ft 98 kts 294°
2026-05-06 20:32 50.98832 46.92511 1158 ft 105 kts 295°
2026-05-06 20:32 50.98719 46.91417 1207 ft 109 kts 233°
2026-05-06 20:32 50.98068 46.90738 1157 ft 116 kts 209°
2026-05-06 20:33 50.97345 46.90130 1152 ft 117 kts 208°
2026-05-06 20:33 50.96626 46.89535 1188 ft 109 kts 208°
2026-05-06 20:33 50.95986 46.88987 1191 ft 103 kts 208°
2026-05-06 20:33 50.95351 46.88461 1187 ft 102 kts 208°
2026-05-06 20:34 50.94724 46.87942 1162 ft 101 kts 208°
2026-05-06 20:34 50.94101 46.87435 1114 ft 102 kts 207°
2026-05-06 20:34 50.93405 46.87471 1048 ft 106 kts 148°
2026-05-06 20:34 50.92983 46.88386 938 ft 107 kts 111°
2026-05-06 20:35 50.92712 46.89386 974 ft 87 kts 110°
2026-05-06 20:35 50.92489 46.90236 896 ft 81 kts 113°
2026-05-06 20:35 50.92257 46.91040 840 ft 79 kts 109°
2026-05-06 20:35 50.92343 46.91815 792 ft 76 kts 33°
2026-05-06 20:36 50.92829 46.92167 713 ft 79 kts 19°
2026-05-06 20:36 50.93350 46.92495 596 ft 83 kts 20°
2026-05-06 20:36 50.93879 46.92900 460 ft 85 kts 24°
2026-05-06 20:36 50.94399 46.93295 373 ft 82 kts 24°
2026-05-06 20:37 50.94915 46.93706 261 ft 82 kts 25°
2026-05-06 20:37 50.95418 46.94106 188 ft 79 kts 24°
2026-05-06 20:37 50.95860 46.94462 165 ft 59 kts 26°
2026-05-06 20:37 50.95992 46.94568 169 ft 9 kts 24°
2026-05-06 20:38 50.96101 46.94640 171 ft 40 kts 26°
2026-05-06 20:38 50.96472 46.94914 236 ft 69 kts 30°
2026-05-06 20:38 50.96902 46.95301 409 ft 74 kts 26°
2026-05-06 20:39 50.97358 46.95706 593 ft 76 kts 25°
2026-05-06 20:39 50.97862 46.95982 738 ft 80 kts 350°
2026-05-06 20:39 50.98275 46.95362 847 ft 94 kts 298°
2026-05-06 20:39 50.98554 46.94368 958 ft 102 kts 297°
2026-05-06 20:40 50.98845 46.93329 1112 ft 104 kts 297°
2026-05-06 20:40 50.99096 46.92230 1232 ft 107 kts 277°
2026-05-06 20:40 50.98782 46.91201 1235 ft 115 kts 217°
2026-05-06 20:40 50.98048 46.90583 1169 ft 119 kts 209°
2026-05-06 20:41 50.97324 46.89960 1182 ft 118 kts 208°
2026-05-06 20:41 50.96587 46.89334 1117 ft 121 kts 210°
2026-05-06 20:41 50.95901 46.88697 1150 ft 109 kts 211°
2026-05-06 20:41 50.95265 46.88121 1143 ft 102 kts 211°
2026-05-06 20:42 50.94649 46.87564 1081 ft 102 kts 211°
2026-05-06 20:42 50.94055 46.87032 1106 ft 97 kts 205°
2026-05-06 20:42 50.93418 46.87127 1112 ft 95 kts 144°
2026-05-06 20:42 50.93070 46.87989 1087 ft 94 kts 112°
2026-05-06 20:43 50.92823 46.88918 986 ft 91 kts 109°
2026-05-06 20:43 50.92607 46.89825 882 ft 88 kts 105°
2026-05-06 20:43 50.92412 46.90715 856 ft 80 kts 105°
2026-05-06 20:43 50.92335 46.91557 827 ft 76 kts 68°
2026-05-06 20:44 50.92746 46.92066 730 ft 80 kts 21°
2026-05-06 20:44 50.93260 46.92430 620 ft 82 kts 22°
2026-05-06 20:44 50.93777 46.92829 490 ft 83 kts 23°
2026-05-06 20:44 50.94292 46.93206 405 ft 80 kts 23°
2026-05-06 20:45 50.94754 46.93600 318 ft 71 kts 26°
2026-05-06 20:45 50.95180 46.93937 231 ft 66 kts 24°
2026-05-06 20:45 50.95580 46.94245 180 ft 62 kts 21°
2026-05-06 20:45 50.95917 46.94505 166 ft 34 kts 20°
2026-05-06 20:46 50.96031 46.94614 170 ft 17 kts 84°
2026-05-06 20:46 50.95996 46.94677 170 ft 0 kts 206°
2026-05-06 20:47 50.95972 46.94657 170 ft 7 kts 206°
2026-05-06 20:47 50.95914 46.94608 167 ft 11 kts 208°
2026-05-06 20:47 50.95835 46.94543 165 ft 13 kts 211°
2026-05-06 20:47 50.95759 46.94480 164 ft 13 kts 206°
2026-05-06 20:48 50.95673 46.94405 160 ft 12 kts 211°
2026-05-06 20:48 50.95603 46.94364 160 ft 11 kts 151°
2026-05-06 20:48 50.95581 46.94463 162 ft 5 kts 161°
2026-05-06 20:48 50.95563 46.94458 162 ft 0 kts 196°